Location: Molino di Ancona
(43.6167°N, 13.3667°E)
Time: 09:27:35
(UTC+00:00)

USA 238 - Pass Details

Date: 15 December 2019
Orbit: 1023 x 1189 km, 63.4° (Epoch: 27 January)

Event Time Altitude Azimuth Distance (km) Brightness Sun altitude
Rises 05:39:17 0° 235° (SW) 3,769 6.3 -9.4°
Reaches altitude 10° 05:41:58 10° 241° (WSW) 2,832 5.6 -8.9°
Maximum altitude 05:48:24 49° 316° (NW) 1,347 3.9 -7.9°
Drops below altitude 10° 05:55:06 10° 30° (NNE) 2,939 6.1 -6.8°
Sets 05:57:56 0° 36° (NE) 3,924 6.8 -6.3°
